Location: Newark
(51.2625°N, 13.3939°E)
Time: 20:47:40
(UTC+00:00)

Explorer 7 - Pass Details

Date: 14 November 2019
Orbit: 485 x 680 km, 50.3° (Epoch: 13 December)

Event Time Altitude Azimuth Distance (km) Brightness Sun altitude
Rises 05:22:26 0° 280° (W) 2,729 - -9.3°
Reaches altitude 10° 05:24:46 10° 276° (W) 1,801 - -8.9°
Exits shadow 05:24:58 11° 275° (W) 1,720 8.7 -8.9°
Maximum altitude 05:28:45 56° 198° (SSW) 619 7.1 -8.3°
Drops below altitude 10° 05:32:32 10° 120° (ESE) 1,707 11.0 -7.8°
Sets 05:34:41 0° 116° (ESE) 2,570 12.7 -7.5°
